OH1KK Weather Reports


time (UTC)temp
C
wind
direction
speed
KPH
gust
KPH
rain 1hr
cm
rain 24hr
cm
rain mn
cm
humidity
%
barometer
mb
20260506140413 7 323 8.0 9.7 0.00 0.00 0.00 47 1002.9
20260506134959 7 300 3.2 4.8 0.00 0.00 0.00 49 1003.1
20260506133443 7 331 8.0 12.9 0.00 0.00 0.00 48 1002.8
20260506131928 8 335 9.7 12.9 0.00 0.00 0.00 46 1002.9
20260506130413 7 296 6.4 6.4 0.00 0.00 0.00 49 1002.7
20260506124959 7 229 9.7 12.9 0.00 0.00 0.00 51 1002.7
20260506123444 7 253 11.3 14.5 0.00 0.00 0.00 50 1002.5
20260506121929 7 309 6.4 8.0 0.00 0.00 0.00 53 1002.5
20260506120414 6 281 14.5 17.7 0.00 0.00 0.00 54 1002.4
20260506113446 7 300 17.7 20.9 0.00 0.00 0.00 51 1002.2
20260506111931 7 251 16.1 19.3 0.00 0.00 0.00 52 1001.8
20260506110416 7 277 19.3 22.5 0.00 0.00 0.00 51 1002.0
20260506104901 7 229 8.0 14.5 0.00 0.00 0.00 50 1001.4
20260506103447 7 276 12.9 19.3 0.00 0.00 0.00 49 1001.3
20260506101931 7 276 16.1 20.9 0.00 0.00 0.00 47 1001.3
20260506100416 7 220 19.3 22.5 0.00 0.00 0.00 47 1001.0
20260506094902 7 261 16.1 19.3 0.00 0.00 0.00 49 1000.8
20260506093448 7 258 14.5 19.3 0.00 0.00 0.00 48 1000.7
20260506091933 7 261 16.1 20.9 0.00 0.00 0.00 50 1000.5
20260506090418 7 271 12.9 17.7 0.00 0.00 0.00 51 1000.4
20260506084903 7 292 8.0 14.5 0.00 0.00 0.00 51 1000.2
20260506080419 6 274 14.5 19.3 0.00 0.00 0.00 51 1000.0
20260506073450 5 278 11.3 16.1 0.00 0.00 0.00 54 999.4
20260506071935 5 304 4.8 9.7 0.00 0.00 0.00 53 999.3
20260506061936 5 260 16.1 19.3 0.00 0.00 0.00 60 998.7
20260506050428 3 222 4.8 6.4 0.00 0.00 0.00 68 998.0
20260506044906 3 251 12.9 16.1 0.00 0.00 0.00 68 998.1
20260506043452 2 271 8.0 12.9 0.00 0.00 0.00 70 998.1
20260506040421 2 279 4.8 6.4 0.00 0.00 0.00 72 997.7
20260506034907 1 291 6.4 9.7 0.00 0.00 0.00 74 997.6
20260506033453 1 258 8.0 9.7 0.00 0.00 0.00 75 997.3
20260506030422 0 231 4.8 6.4 0.00 0.00 0.00 78 997.1
20260506024909 0 207 1.6 4.8 0.00 0.00 0.00 79 997.2
20260506021939 0 252 1.6 3.2 0.00 0.00 0.00 80 997.0
20260506020424 0 233 0.0 1.6 0.00 0.00 0.00 79 996.8
20260506014909 0 259 0.0 0.0 0.00 0.00 0.00 79 996.8
20260506013455 0 278 0.0 1.6 0.00 0.00 0.00 78 996.6
20260506011940 0 253 1.6 3.2 0.00 0.00 0.00 78 996.4
20260506010424 0 255 3.2 4.8 0.00 0.00 0.00 77 996.3
20260506004910 0 242 0.0 0.0 0.00 0.00 0.00 77 996.0
20260506003456 0 200 3.2 3.2 0.00 0.00 0.00 76 996.2
20260506001941 0 259 1.6 1.6 0.00 0.00 0.00 77 995.9
20260506000425 0 186 0.0 1.6 0.00 0.00 0.00 76 995.7
20260505231941 1 226 3.2 3.2 0.00 0.00 0.00 74 995.8
20260505230426 1 154 0.0 1.6 0.00 0.00 0.00 74 995.6
20260505224910 1 231 0.0 1.6 0.00 0.00 0.00 73 995.5
20260505223456 1 257 1.6 1.6 0.00 0.00 0.00 72 995.7
20260505220426 2 190 1.6 1.6 0.00 0.00 0.00 68 995.6
20260505214910 2 219 3.2 4.8 0.00 0.00 0.00 67 995.4
20260505213456 2 267 1.6 3.2 0.00 0.00 0.00 67 995.4
20260505211941 2 199 1.6 3.2 0.00 0.00 0.00 66 995.3
20260505204910 2 230 1.6 3.2 0.00 0.00 0.00 64 995.2
20260505203456 2 250 1.6 1.6 0.00 0.00 0.00 63 995.1
20260505201941 3 255 3.2 3.2 0.00 0.00 0.00 62 995.0
20260505200425 3 190 1.6 4.8 0.00 0.00 0.00 60 995.0
20260505190426 5 270 9.7 12.9 0.00 0.00 0.00 52 994.5
20260505184917 5 233 1.6 3.2 0.00 0.00 0.00 52 994.8
20260505183457 6 230 11.3 16.1 0.00 0.00 0.00 49 994.5
20260505181942 6 234 3.2 4.8 0.00 0.00 0.00 48 994.4
20260505180426 6 246 9.7 12.9 0.00 0.00 0.00 46 994.5
20260505174912 7 271 4.8 6.4 0.00 0.00 0.00 44 994.2
20260505173458 7 272 12.9 16.1 0.00 0.00 0.00 42 993.9
20260505170428 8 281 8.0 9.7 0.00 0.00 0.00 38 993.7
20260505164912 8 290 6.4 8.0 0.00 0.00 0.00 38 993.7
20260505160429 8 291 8.0 14.5 0.00 0.00 0.00 35 993.6
20260505151944 9 286 6.4 8.0 0.00 0.00 0.00 35 993.3
20260505150428 8 287 8.0 8.0 0.00 0.00 0.00 34 993.1